[Iaude] MPEC V116: 2023 VM3 [a=1.68,e=0.43,i=16.2,H=26.8]
    mpec at marsden.cfa.harvard.edu 
    mpec at marsden.cfa.harvard.edu
       
    Wed Nov  8 08:16:56 EST 2023
    
    
  
M.P.E.C. 2023-V116                             Issued 2023 November 8, 13:15 UT
     The Minor Planet Electronic Circulars contain information on unusual
         minor planets, routine data on comets and natural satellites,
         and occasional editorial announcements.  They are published
    on behalf of Division F of the International Astronomical Union by the
          Minor Planet Center, Smithsonian Astrophysical Observatory,
                          Cambridge, MA 02138, U.S.A.
			  
             Prepared using the Tamkin Foundation Computer Network
                              MPC at CFA.HARVARD.EDU
            URL https://www.minorplanetcenter.net/    ISSN 1523-6714
                                    2023 VM3                                    
Observations:
     K23V03M*1C2023 11 07.29550702 08 08.920+00 59 09.74         19.89GVEV116G96
     K23V03M 1C2023 11 07.31251102 08 37.759+00 52 18.73         20.32GVEV116G96
     K23V03M KC2023 11 07.35667202 09 52.394+00 34 38.86         19.73GVEV116I52
     K23V03M KC2023 11 07.35725102 09 53.370+00 34 24.56         19.83GVEV116I52
     K23V03M KC2023 11 07.35783202 09 54.346+00 34 10.63         19.56GVEV116I52
     K23V03M KC2023 11 07.35842102 09 55.307+00 33 56.45         19.91GVEV116I52
     K23V03M KC2023 11 07.39912202 11 03.770+00 17 53.80         20.46GVEV116I52
     K23V03M KC2023 11 07.39971202 11 04.730+00 17 40.10         19.85GVEV116I52
     K23V03M KC2023 11 07.40029402 11 05.670+00 17 25.30               VEV116I52
     K23V03M hC2023 11 07.89380002 24 43.553-02 43 08.87         19.6 GVEV116J95
     K23V03M hC2023 11 07.89851902 24 50.383-02 44 42.79         20.5 GVEV116J95
     K23V03M KC2023 11 07.96735002 26 25.36 -03 07 21.5          20.4 GVEV116L01
     K23V03M KC2023 11 07.96883402 26 27.41 -03 07 49.8          20.4 GVEV116L01
     K23V03M KC2023 11 07.97031902 26 29.46 -03 08 18.8          20.2 GVEV116L01
     K23V03M KC2023 11 07.97180202 26 31.59 -03 08 48.2          20.3 GVEV116L01
     K23V03M KC2023 11 07.98400902 26 49.77 -03 12 50.9                VEV116204
     K23V03M KC2023 11 07.99454402 27 04.45 -03 16 17.5          20.6 GVEV116204
     K23V03M KC2023 11 08.12873202 30 27.70 -03 58 50.3          20.4 GVEV116H21
     K23V03M KC2023 11 08.13152802 30 31.45 -03 59 42.7          20.6 GVEV116H21
     K23V03M KC2023 11 08.13526602 30 36.43 -04 00 52.9          21.2 GVEV116H21
     K23V03M 1C2023 11 08.30256002 34 18.016-04 51 29.34         19.98GVEV116G96
     K23V03M 1C2023 11 08.30776402 34 24.539-04 53 01.07         20.03GVEV116G96
     K23V03M 1C2023 11 08.31296302 34 31.080-04 54 34.31         20.36GVEV116G96
Observer details:
204 Schiaparelli Observatory.  Observers L. Buzzi, G. Galli.  0.84-m f/3.5
    reflector + CCD.
G96 Mt. Lemmon Survey.  Observer D. Rankin.  Measurers E. C. Beshore, D. Fay,
    J. B. Fazekas, D. C. Fuls, A. R. Gibbs, A. D. Grauer, H. Groeller, J. K.
    Hogan, R. A. Kowalski, S. M. Larson, G. J. Leonard, D. Rankin, R. L.
    Seaman, F. C. Shelly, K. W. Wierzchos.  1.5-m reflector + 10K CCD.
H21 Astronomical Research Observatory, Westfield.  Observer R. Holmes.
    Measurers T. Linder, R. Holmes, L. Horn.  0.76-m f/3.0 astrograph + CCD.
I52 Steward Observatory, Mt. Lemmon Station.  Observer H. Groeller.  Measurers
    E. C. Beshore, D. Fay, J. B. Fazekas, D. C. Fuls, A. R. Gibbs, A. D.
    Grauer, H. Groeller, J. K. Hogan, R. A. Kowalski, S. M. Larson, G. J.
    Leonard, D. Rankin, R. L. Seaman, F. C. Shelly, K. W. Wierzchos.  1.0-m
    prime focus + CCD.
J95 Great Shefford.  Observer P. Birtwhistle.  0.41-m f/6.3 Schmidt-Cassegrain
    + CCD.
L01 Visnjan Observatory, Tican.  Observer K. Korlevic.  1.0-m f/2.9 reflector
    + CCD.
Orbital elements:
2023 VM3                                                 Earth MOID = 0.0202 AU
Epoch 2023 Sept. 13.0 TT = JDT 2460200.5                Veres                   
M 348.54652              (2000.0)            P               Q                  
n   0.45235756     Peri.  145.24761     +0.97496311     -0.11644761             
a   1.6806663      Node   222.72036     +0.07914938     +0.97785549             
e   0.4275461      Incl.   16.21451     +0.20780352     +0.17389250             
P   2.18           H   26.84          G   0.15           U   7                  
Residuals in seconds of arc
231107 G96  0.3+  0.1-    231107 I52  0.1-  1.5-    231107 204  0.1+  0.3-
231107 G96  0.3-  0.4+    231107 J95  0.1+  0.8-    231108 H21  0.0   0.1-
231107 I52  0.5+  0.3-    231107 J95  0.2+  0.6+    231108 H21  0.1+  0.2+
231107 I52  0.5+  0.8-    231107 L01  0.2-  0.8-    231108 H21  0.2-  0.3+
231107 I52  0.4+  0.9-    231107 L01  0.7-  0.2+    231108 G96  0.0   0.2-
231107 I52  0.0   1.1-    231107 L01  1.2-  0.5+    231108 G96  0.0   0.6+
231107 I52  0.9+  0.5-    231107 L01  0.4-  0.4+    231108 G96  0.4+  0.4-
231107 I52  0.5+  0.3-    231107 204  0.3+  0.2-
Ephemeris:
2023 VM3                 a,e,i = 1.68, 0.43, 16                  q = 0.9621
Date    TT    R. A. (2000) Decl.     Delta      r    Elong.  Phase     V
2023 10 09    17 17 01.1 +33 04 21   0.1810  0.9621    73.1    96.6    26.5
...
2023 10 24    18 03 04.0 +37 18 55   0.08324 0.9787    76.4    98.8    25.0
...
2023 11 01    20 25 27.6 +42 01 18   0.03393 0.9991   100.0    78.1    22.2
...
2023 11 07    01 58 53.8 +03 06 42   0.02930 1.0192   162.6    16.9    20.1
2023 11 08    02 27 14.7 -03 14 34   0.03400 1.0229   159.6    19.7    20.5
2023 11 09    02 48 28.4 -07 55 00   0.03941 1.0267   155.4    23.7    21.0
...
2023 11 15    03 47 56.2 -19 37 12   0.07794 1.0514   141.4    35.9    22.9
...
2023 11 23    04 12 15.0 -23 01 30   0.1341  1.0889   136.5    38.6    24.2
...
2023 12 08    04 26 35.9 -22 36 55   0.2454  1.1696   134.2    37.2    25.6
M. P. C. Staff               (C) Copyright 2023 MPC           M.P.E.C. 2023-V116
    
    
More information about the Iaude
mailing list